weather.gov     
National Weather Service

Regional Weather Roundup
NWS Homepage
This page is being discontinued on March 12, 2014.
The same data is available at this site. Please update your bookmarks.
Thank you, and we apologize for the inconvenience.
Please send an email to SR-SRH.Webmaster@noaa.gov with any concerns.


Current Version
Previous Version:    01  02  03  04  05  06  07  08  09  10  11  12  13  14  15  16  17  18  19  20  21  22  23  24  25  26  27  
[Printable]
992
ASUS45 KGGW 201615
RWRGGW
HOURLY WEATHER ROUNDUP FOR NORTHEAST MONTANA
NATIONAL WEATHER SERVICE GLASGOW MONTANA
1000 AM MDT SUN APR 20 2014

NOTE: "FAIR" INDICATES FEW OR NO CLOUDS BELOW 12,000 FEET WITH NO
SIGNIFICANT WEATHER AND/OR OBSTRUCTIONS TO VISISBILITY.

NORTHEAST MONTANA


CITY           SKY/WX    TMP DP  RH WIND       PRES   REMARKS
GLASGOW        PTSUNNY   57  29  34 W26G36    29.91R
PLENTYWOOD       N/A     51  33  50 S8          N/A
WOLF POINT     MOSUNNY   60  29  30 W28G37    29.88R
JORDAN           N/A     58  24  27 W30G44    29.94R
WINNETT          N/A     56  16  20 W26G35      N/A
SIDNEY         PTSUNNY   54  36  50 W10G18    29.88R
GLENDIVE       CLOUDY    57  28  33 NW35G41   29.91R
SCOBEY           N/A     56  27  33 W23G31    29.84R

FORT PECK REPORTS


CITY           SKY/WX    TMP DP  RH WIND       PRES   REMARKS
FORT PECK        N/A     55  30  38 W26G35      N/A
THE PINES        N/A     58  24  27 W14G28      N/A

SOUTHEAST MONTANA


CITY           SKY/WX    TMP DP  RH WIND       PRES   REMARKS
BILLINGS       PTSUNNY   56  27  32 W17       30.05R
MILES CITY     CLOUDY    56  28  34 NW17G25   29.97R
BAKER          CLOUDY    57  34  41 W21       29.94R
LIVINGSTON     SUNNY     53  28  38 W28       30.10R

CENTRAL MONTANA


CITY           SKY/WX    TMP DP  RH WIND       PRES   REMARKS
HAVRE          CLOUDY    52  27  38 W28G39    29.97R
LEWISTOWN      SUNNY     51  15  23 W31G39    30.03R
GREAT FALLS    SUNNY     50  18  28 W25G35    30.06R
CUT BANK       SUNNY     48  27  44 W35G41    30.00R
HELENA         SUNNY     49  19  30 W23G30    30.14R
BUTTE          SUNNY     43  23  45 NW8       30.17S
BOZEMAN        SUNNY     50  26  39 W10       30.14S

WESTERN MONTANA


CITY           SKY/WX    TMP DP  RH WIND       PRES   REMARKS
MISSOULA       CLOUDY    47  24  40 W8        30.26R
KALISPELL      NOT AVBL

NORTH DAKOTA


CITY           SKY/WX    TMP DP  RH WIND       PRES   REMARKS
WILLISTON      PTSUNNY   55  33  43 S7        29.84S
DICKINSON      CLOUDY    59  31  34 S14       29.87S
MINOT          MOSUNNY   59  35  40 SE9       29.87F
BISMARCK       SUNNY     60  37  42 SE9       29.94F

SOUTHERN SASKATCHEWAN


CITY           SKY/WX    TMP DP  RH WIND       PRES   REMARKS
REGINA         MOSUNNY   45  37  76 SE13G20   29.82S
ESTEVAN        CLOUDY    48  39  71 E7        29.84F
SWIFT CURRENT  MOSUNNY   50  36  57 W23G32    29.78S





U.S. Dept. of Commerce
NOAA National Weather Service
1325 East West Highway
Silver Spring, MD 20910
E-mail: w-nws.webmaster@noaa.gov
Page last modified: May 16, 2007
NATIONAL WEATHER SERVICE: for Safety, for Work, for Fun - FOR LIFE